www.pogodaiklimat.ru

Погода и климат >> Архив погоды >> Финляндия >> Пудасъярви


ПОГОДА в Пудасъярви

  • Прогноз погоды в Пудасъярви
  • Монитор погоды в Пудасъярви

АРХИВ ПОГОДЫ в Пудасъярви

Время (UTC), дата Ветер
(напр.,м/с)
 
Видим.   Явления Облачность Т
(С)
Тd
(С)
f
(%)
Тe
(С)
Тes
(С)
Комфортность P
(гПа)
Po
(гПа)
Тmin
(С)
Tmax
(С)
R
(мм)
R24
(мм)
S
(см)
21 18.08 Ю 2-3
{4}
50 км 10/1 1500 м
[]
+16.2 +9.4 64 +16 +16 1011.0 996.5
00 19.08 ЮВ 3-5
{6}
50 км 9/0
[]
+14.6 +7.0 60 +14 +14 1010.0 995.5
03 19.08 В 3-5
{6}
50 км 6/6 2000 м
[]
+13.2 +7.7 69 +12 +12 1008.9 994.3
06 19.08 ЮВ 4-7
{8}
50 км 9/9 2000 м
[]
+16.3 +8.9 62 +16 +16 1007.2 992.8 +13.1 +16.8
09 19.08 ЮВ 4-8
{9}
35 км слаб. ливневой дождь 9/1 1000 м
[]
+17.0 +10.3 65 +17 +19 1005.1 990.8
12 19.08 ЮВ 5-11
{16}
14 км слаб. ливневой дождь 10/10 600 м
[]
+15.6 +12.4 81 +14 +14 1003.7 989.4 0.1
15 19.08 ЮВ 5-11
{11}
10 км слаб. ливневой дождь 9/9 300 м
[]
+15.3 +13.9 91 +14 +14 1004.3 989.9
18 19.08 Ю 4-8
{8}
50 км {ливн. осадки, дождь} 6/6 300 м
[]
+16.0 +14.2 89 +15 +15 1005.2 990.8 +15.1 +17.5 0.4
21 19.08 Ю 3-6
{6}
30 км {ливн. осадки, дождь} 10/0 1500 м
[]
+14.9 +14.3 96 +14 +14 1006.6 992.2
00 20.08 Ю 3-4
{5}
45 км {ливн. осадки, дождь} ясно +13.3 +12.0 92 +12 +12 1007.3 992.8
03 20.08 Ю 3-4
{5}
40 км 1/0 200 м
[]
+11.6 +11.0 96 +10 +10 1008.4 993.8
06 20.08 Ю 4-5
{6}
30 км ясно +14.6 +11.6 82 +13 +15 1009.3 994.8 +11.5 +16.0 0.5
09 20.08 ЮЗ 4-7
{8}
40 км 9/9 600 м
[]
+18.0 +11.6 66 +18 +18 1010.1 995.8
12 20.08 З 4-7
{9}
45 км слаб. ливневой дождь 6/6 1000 м
[]
+16.7 +11.3 70 +16 +18 1011.6 997.2
15 20.08 ЮВ 2-3
{3}
35 км в посл. час дождь {ливн. осадки, метель} 4/1 1500 м
[]
+16.0 +13.6 86 +16 +18 1012.3 997.8
18 20.08 СВ 1-1
{3}
35 км в посл. час дождь {ливн. осадки} 4/1 1500 м
[]
+12.9 +12.5 97 +13 +13 1013.6 998.9 +12.1 +19.9 20
21 20.08 ЮВ 2-3
{3}
15 км сильн. ливневой дождь 9/9 600 м
[]
+12.4 +12.3 99 +11 +11 1014.7 1000.0 2
00 21.08 Ю 2-3
{4}
28 км {ливн. осадки, дождь} ясно +10.9 +10.6 98 +9 +9 1014.8 1000.0
03 21.08 Ю 2-3
{5}
22 км 1/0
[]
+10.5 +10.1 97 +9 +9 1015.3 1000.5
06 21.08 Ю 3-5
{5}
23 км 10/10 100 м
[]
+12.9 +12.2 96 +11 +11 1016.0 1001.3 +10.1 +13.0 3
09 21.08 Ю 4-6
{6}
35 км 6/1 300 м
[]
+17.5 +12.7 73 +17 +20 1016.0 1001.6
12 21.08 Ю 3-5
{9}
45 км в посл. час дождь 1/0 2000 м
[]
+18.7 +12.1 65 +20 +25 1015.9 1001.6
15 21.08 ЮЗ 3-6
{7}
40 км 1/0 600 м
[]
+18.1 +11.2 64 +18 +20 1016.6 1002.1
18 21.08 ЮВ 2-4
{4}
40 км {метель} ясно +14.4 +12.1 86 +14 +14 1016.7 1002.1 +12.9 +19.3
21 21.08 Ю 2-4
{4}
45 км 1/0
[]
+12.3 +11.8 97 +11 +11 1016.8 1002.1
00 22.08 ЮВ 2-2
{3}
16 км 1/0
[]
+9.8 +9.7 99 +8 +8 1016.2 1001.4
03 22.08 ЮВ 2-3
{3}
25 км 9/9 200 м
[]
+10.5 +10.2 98 +9 +9 1016.0 1001.2
06 22.08 Ю 2-3
{4}
30 км в посл. час дождь {ливн. осадки} 9/9 50 м
[]
+11.7 +11.4 98 +10 +11 1015.8 1001.1 +8.7 +14.4 0.3
09 22.08 Ю 3-5
{5}
50 км 9/4 600 м
[]
+15.8 +11.0 73 +15 +17 1015.6 1001.1
12 22.08 З 6-9
{9}
40 км {ливн. осадки, дождь} 1/0 1000 м
[]
+17.8 +9.1 57 +17 +20 1015.3 1000.9
15 22.08 ЮЗ 4-8
{8}
50 км ясно +16.2 +8.5 60 +16 +17 1016.5 1002.0
18 22.08 ЮЗ 2-4
{6}
50 км ясно +12.7 +9.1 79 +12 +12 1017.5 1002.8 +11.7 +18.4 2
21 22.08 ЮЗ 3-5
{5}
30 км 6/6 50 м
[]
+11.3 +11.1 99 +9 +9 1018.1 1003.4
00 23.08 Ю 2-3
{4}
21 км 9/9 50 м
[]
+9.2 +9.1 99 +7 +7 1018.4 1003.5
03 23.08 Ю 2-3
{4}
30 км 10/0 100 м
[]
+8.7 +8.3 97 +7 +7 1018.2 1003.3
06 23.08 ЮВ 2-4
{4}
12 км в посл. час туман 9/9 50 м
[]
+9.9 +9.9 100 +8 +8 1018.0 1003.1 +8.1 +12.7
09 23.08 ЮВ 4-7
{7}
35 км слаб. морось {дождь} 9/9 300 м
[]
+13.3 +9.5 78 +12 +12 1016.6 1002.0
12 23.08 ЮВ 3-5
{7}
8000 м слаб. ливневой дождь 10/10 100 м
[]
+12.0 +11.8 99 +10 +10 1015.5 1000.8 0.8
15 23.08 ЮВ 2-5
{5}
16 км слаб. дождь 9/9 100 м
[]
+12.6 +12.5 99 +12 +12 1013.7 999.1 1
18 23.08 ЮВ 1-2
{3}
28 км {ливн. осадки, дождь} 9/6 100 м
[]
+12.7 +12.6 99 +13 +13 1012.5 997.9 +9.9 +14.3 5
21 23.08 В 1-2
{3}
10 км дымка {ливн. осадки, дождь} 1/0 2000 м
[]
+9.6 +9.6 100 +9 +9 1012.1 997.3
00 24.08 В 1-1
{1}
8000 м дымка {ливн. осадки, дождь} 1/0 2000 м
[]
+7.7 +7.7 100 +7 +7 1012.7 997.8
03 24.08 штиль 0-1
{1}
23 км в посл. час туман 9/9 300 м
[]
+8.1 +8.1 100 +7 +7 1013.9 999.0
06 24.08 СЗ 2-3
{5}
35 км {туман, метель} 10/10 50 м
[]
+11.4 +11.4 100 +10 +10 1015.4 1000.7 +5.7 +12.7
09 24.08 СЗ 5-8
{8}
45 км 9/4 300 м
[]
+14.7 +10.2 74 +13 +14 1017.6 1003.0
12 24.08 С 2-4
{8}
45 км в посл. час дождь {ливн. осадки} 1/0 1500 м
[]
+15.5 +11.3 76 +15 +21 1019.7 1005.1 0.4
15 24.08 С 4-5
{7}
50 км {ливн. осадки, дождь} 1/0 1000 м
[]
+17.1 +9.7 62 +17 +18 1021.8 1007.3
18 24.08 З 1-1
{2}
50 км {ливн. осадки, дождь} ясно +12.3 +9.9 85 +12 +12 1023.6 1008.8 +11.4 +17.1 0.4
21 24.08 штиль 0-1
{2}
17 км ясно +7.5 +7.3 99 +6 +6 1025.0 1010.0
00 25.08 Ю 1-1
{1}
45 км ясно +4.0 +3.7 98 +2 +2 1025.9 1010.6
03 25.08 ЮВ 1-2
{2}
400 м туман {дымка} ?/? +6.2 +6.2 100 +5 +5 1026.0 1010.8
06 25.08 ЮВ 2-3
{4}
35 км {туман, метель} 9/1 50 м
[]
+9.0 +9.0 100 +7 +8 1025.6 1010.6 +3.4 +12.3
09 25.08 Ю 3-6
{6}
45 км {ливн. осадки, дождь} 9/1 1500 м
[]
+14.4 +10.4 77 +13 +16 1023.9 1009.2
12 25.08 Ю 6-9
{10}
15 км слаб. ливневой дождь 10/10 600 м
[]
+14.0 +9.2 73 +12 +12 1022.1 1007.4
15 25.08 Ю 3-5
{6}
35 км слаб. ливневой дождь 10/10 600 м
[]
+12.1 +11.3 95 +10 +10 1019.8 1005.0 0.8
18 25.08 Ю 5-9
{9}
22 км слаб. ливневой дождь 9/1 300 м
[]
+12.6 +12.3 98 +10 +10 1015.8 1001.1 +9.0 +15.7 12

 

Местоположение метеостанции Пудасъярви (Финляндия): широта 65.40 долгота 26.96 высота над уровнем моря 120 м.

В архиве по умолчанию представлена погода в Пудасъярви за последнюю неделю. Архивные данные за месяц целиком и за предыдущие месяцы, начиная с января 2011 года, Вы можете получить, выбрав интересующий диапазон дат из раскрывающегося списка и нажав кнопку "Ввод!".


*Определитесь, кто Вы:
робот инопланетянин человек

Внимание! Время в таблицах - всемирное. Для получения местного времени необходимо прибавить поправку, которая равна 1 ч.

Смотрите также архив погоды в соседних городах и на ближайших метеорологических станциях:

Погода в Тайвалкоски (Финляндия) (61 км)
Погода в Аэропорту Рануа (Финляндия) (69 км)
Погода в Оулу (Финляндия) (85 км)
Погода в Оулунсало Пеллонпаа (Финляндия) (90 км)
Погода в Пуоланка Пальякка (Финляндия) (97 км)
Погода в Суомуссалми (Финляндия) (99 км)
Погода в Ваала Пэлсо (Финляндия) (103 км)
Погода в Хайлуото (Финляндия) (112 км)
Погода в Кеми Айос (Финляндия) (116 км)
Погода в Кеми аэропорту (Финляндия) (117 км)

Пояснения к столбцам:

Ветер - указаны скорость ветра в м/с - средняя за 10 мин, порывы в срок и между сроками (в фигурных скобках) и направление, откуда дует ветер: С - северный, СВ - северо-восточный, В - восточный, ЮВ - юго-восточный, Ю - южный, ЮЗ - юго-западный, З - западный, СЗ - северо-западный.
Видимость - горизонтальная дальность видимости в метрах или километрах. При видимости от 1 до 10 км при отсутствии осадков обычно наблюдается дымка, при ухудшении видимости до 1 км и менее - туман. В сухую погоду видимость может ухудшаться дымом, пылью или мглою.
Явления - указаны атмосферные явления, наблюдавшиеся в срок или в последний час перед сроком; фигурными скобками обозначены явления, наблюдавшиеся между сроками (за 1-3 часа до срока); квадратными скобками обозначены град или гололедные отложения с указанием их диаметра в мм.
Облачность - указаны через наклонную черту общая и нижняя облачность в баллах и высота нижней границы облаков в метрах; квадратными скобками обозначены формы облаков: Ci - перистые, Cs - перисто-слоистые, Cc - перисто-кучевые, Ac - высококучевые, As - высокослоистые, Sc - слоисто-кучевые, Ns - слоисто-дождевые, Cu - кучевые, Cb - кучево-дождевые. Подробнее классификацию облаков см. в Атласе облаков (PDF).
T - Температура воздуха - температура, измеренная на высоте 2 м над землей.
Td - Температура точки росы - температура, при понижении до которой содержащийся в воздухе водяной пар достигнет насыщения.
f - Относительная влажность воздуха - влажноcть воздуха, измеренная на высоте 2 м над землей.
Te - Эффективная температура - температура, которую ощущает одетый по сезону человек в тени. Характеристика душности погоды. При расчете учитывается влияние влажности воздуха и скорости ветра на теплоощущения человека.
Tes - Эффективная температура на солнце - температура, которую ощущает человек, с поправкой на солнечный нагрев. Характеристика знойности погоды. Зависит от высоты солнца над горизонтом, облачности и скорости ветра. Ночью, в пасмурную погоду, а также при ветре 12 м/с и более поправка равна нулю.
P - Атмосферное давление - приведенное к уровню моря атмосферное давление.
Po - Атмосферное давление - измеренное на уровне метеостанции атмосферное давление.
Tmin - Минимальная температура - минимум температуры воздуха на высоте 2 м над землей.
Tmax - Максимальная температура - максимум температуры воздуха на высоте 2 м над землей.
R - Количество осадков - Количество выпавших осадков за период времени, мм. При наведении курсора мыши на число - период времени, за который выпало указанное количество осадков.
R24 - Количество осадков - Количество выпавших осадков за 24 часа, мм.
S - Снежный покров - Высота снежного покрова, см. При наведении курсора мыши на число - состояние снежного покрова и степень покрытия местности в баллах.